Erzurum, Turkey

12:07 AM +03 on March 30, 2017 (GMT +0300)
Erzurum

Weather History for LTCE - July, 2013

Change the Weather History Date:

Monday, July 15, 2013

  Actual Average Record
Temperature  
Mean Temperature 69 °F -  
Max Temperature 84 °F 80 °F 93 °F (2000)
Min Temperature 54 °F 52 °F 35 °F (1996)
Cooling Degree Days 4    
Growing Degree Days 19 (Base 50)    
Moisture  
Dew Point 53 °F    
Average Humidity 59    
Maximum Humidity 94    
Minimum Humidity 22    
Precipitation  
Precipitation 0.00 in 0.03 in - ()
Sea Level Pressure  
Sea Level Pressure 30.01 in    
Wind  
Wind Speed 9 mph ()    
Max Wind Speed 25 mph    
Max Gust Speed -    
Visibility 7.6 miles    
Events      
Averages and records for this station are not official NWS values.
T = Trace of Precipitation, MM = Missing Value Source: Averaged Metar Reports

Daily Weather History Graph

Daily Weather History Graph

Search for Another Location

Airport or City:

Trip Planner

Search our weather history database for the weather conditions in past years. The results will help you decide how hot, cold, wet, or windy it might be!

Date:

Astronomy

Jul. 15, 2013 Rise Set
Actual Time 4:59 AM EEST 7:43 PM EEST
Civil Twilight 4:27 AM EEST 8:14 PM EEST
Nautical Twilight 3:47 AM EEST 8:54 PM EEST
Astronomical Twilight 3:02 AM EEST 9:39 PM EEST
Moon 11:55 AM EEST (7/15) 11:17 PM EEST (7/15)
Length of Visible Light 15h 47m
Length of Day
14h 43m
Waxing Crescent, 42% of the Moon is Illuminated
Jul 15
Waxing Crescent
Jul 16
First Quarter
Jul 22
Full
Jul 29
Last Quarter
Aug 7
New

Hourly Weather History & Observations

Time (EEST) Temp. Heat Index Dew Point Humidity Pressure Visibility Wind Dir Wind Speed Gust Speed Precip Events Conditions
12:00 AM 62 °F - 55 °F 70%  in 12 mi East 22.4 mph - -   Partly Cloudy
12:20 AM 60.8 °F - 53.6 °F 77% 30.04 in 6.2 mi East 9.2 mph - N/A   Partly Cloudy
12:50 AM 60.8 °F - 53.6 °F 77% 30.04 in 6.2 mi ENE 6.9 mph - N/A   Partly Cloudy
1:20 AM 60.8 °F - 55.4 °F 82% 30.04 in 6.2 mi NE 4.6 mph - N/A   Partly Cloudy
1:50 AM 59.0 °F - 55.4 °F 88% 30.04 in - NE 4.6 mph - N/A   Clear
2:20 AM 57.2 °F - 53.6 °F 88% 30.04 in - NE 5.8 mph - N/A   Clear
2:50 AM 59.0 °F - 53.6 °F 82% 30.04 in - ENE 6.9 mph - N/A   Clear
3:00 AM 58 °F - 53 °F 78%  in 12 mi ENE 13.4 mph - -   Partly Cloudy
3:20 AM 55.4 °F - 53.6 °F 94% 30.04 in - NE 6.9 mph - N/A   Clear
3:50 AM 55.4 °F - 53.6 °F 94% 30.04 in - ENE 4.6 mph - N/A   Clear
4:20 AM 53.6 °F - 51.8 °F 94% 30.04 in - NE 4.6 mph - N/A   Clear
4:50 AM 55.4 °F - 51.8 °F 88% 30.04 in - ENE 4.6 mph - N/A   Clear
5:20 AM 55.4 °F - 51.8 °F 88% 30.04 in - NE 6.9 mph - N/A   Clear
5:50 AM 57.2 °F - 53.6 °F 88% 30.04 in - NE 6.9 mph - N/A   Clear
6:00 AM 56 °F - 53 °F 88%  in 12 mi NE 11.2 mph - -  
6:20 AM 59.0 °F - 53.6 °F 82% 30.06 in - ENE 5.8 mph - N/A   Clear
6:50 AM 62.6 °F - 53.6 °F 72% 30.06 in - ENE 6.9 mph - N/A   Clear
7:20 AM 62.6 °F - 53.6 °F 72% 30.06 in - East 10.4 mph - N/A   Clear
7:50 AM 64.4 °F - 53.6 °F 68% 30.06 in - East 11.5 mph - N/A   Clear
8:20 AM 66.2 °F - 53.6 °F 64% 30.04 in 6.2 mi East 11.5 mph - N/A   Partly Cloudy
8:50 AM 66.2 °F - 53.6 °F 64% 30.04 in 6.2 mi East 12.7 mph - N/A   Partly Cloudy
9:00 AM 67 °F - 52 °F 49%  in 12 mi East 12.7 mph - -   Scattered Clouds
9:20 AM 69.8 °F - 53.6 °F 56% 30.04 in 6.2 mi East 11.5 mph - N/A   Partly Cloudy
9:50 AM 69.8 °F - 53.6 °F 56% 30.04 in 6.2 mi East 11.5 mph - N/A   Partly Cloudy
10:20 AM 69.8 °F - 53.6 °F 56% 30.04 in 6.2 mi East 11.5 mph - N/A   Partly Cloudy
10:50 AM 71.6 °F - 53.6 °F 53% 30.04 in 6.2 mi East 10.4 mph - N/A   Partly Cloudy
11:20 AM 73.4 °F - 51.8 °F 47% 30.04 in 6.2 mi ENE 12.7 mph - N/A   Partly Cloudy
11:50 AM 75.2 °F - 55.4 °F 50% 30.01 in 6.2 mi East 12.7 mph - N/A   Partly Cloudy
12:00 PM 75 °F - 52 °F 34%  in 12 mi East 24.6 mph - -   Scattered Clouds
12:20 PM 77.0 °F - 55.4 °F 47% 30.01 in 6.2 mi ENE 11.5 mph - N/A   Partly Cloudy
12:50 PM 78.8 °F - 55.4 °F 44% 30.01 in 6.2 mi NE 10.4 mph - N/A   Partly Cloudy
1:20 PM 78.8 °F - 55.4 °F 44% 30.01 in 6.2 mi ENE 9.2 mph - N/A   Partly Cloudy
1:50 PM 80.6 °F 80.5 °F 55.4 °F 42% 29.98 in 6.2 mi NE 9.2 mph - N/A   Partly Cloudy
2:20 PM 80.6 °F 80.3 °F 53.6 °F 39% 29.98 in 6.2 mi ENE 6.9 mph - N/A   Scattered Clouds
2:50 PM 82.4 °F - 50.0 °F 32% 29.98 in 6.2 mi NE 8.1 mph - N/A   Scattered Clouds
3:00 PM 82 °F - 50 °F 22%  in 12 mi NE 8.1 mph - -   Partly Cloudy
3:20 PM 82.4 °F - 51.8 °F 35% 29.95 in 6.2 mi ENE 8.1 mph - N/A   Scattered Clouds
3:50 PM 84.2 °F - 51.8 °F 33% 29.95 in 6.2 mi NE 6.9 mph - N/A   Scattered Clouds
4:20 PM 82.4 °F - 50.0 °F 32% 29.95 in 6.2 mi ENE 5.8 mph - N/A   Scattered Clouds
4:50 PM 82.4 °F - 48.2 °F 30% 29.95 in 6.2 mi NE 5.8 mph - N/A   Scattered Clouds
5:20 PM 82.4 °F - 50.0 °F 32% 29.95 in 6.2 mi NE 6.9 mph - N/A   Scattered Clouds
5:50 PM 82.4 °F - 51.8 °F 35% 29.95 in 6.2 mi NE 6.9 mph - N/A   Partly Cloudy
6:00 PM 82 °F - 50 °F 22%  in 12 mi NE 13.4 mph - -   Scattered Clouds
6:20 PM 78.8 °F - 55.4 °F 44% 29.95 in 6.2 mi NE 10.4 mph - N/A   Partly Cloudy
6:50 PM 77.0 °F - 57.2 °F 50% 29.95 in - NE 9.2 mph - N/A   Clear
7:20 PM 75.2 °F - 55.4 °F 50% 29.95 in - ENE 9.2 mph - N/A   Clear
7:50 PM 71.6 °F - 55.4 °F 57% 29.98 in - ENE 13.8 mph - N/A   Clear
8:20 PM 71.6 °F - 55.4 °F 57% 29.98 in - ENE 12.7 mph - N/A   Clear
8:50 PM 71.6 °F - 55.4 °F 57% 29.98 in - East 12.7 mph - N/A   Clear
9:00 PM 72 °F - 54 °F 43%  in 12 mi East 24.6 mph - -  
9:20 PM 71.6 °F - 53.6 °F 53% 29.98 in - ENE 16.1 mph - N/A   Clear
9:50 PM 69.8 °F - 55.4 °F 60% 29.98 in - ENE 11.5 mph - N/A   Clear
10:20 PM 69.8 °F - 55.4 °F 60% 29.98 in - ENE 11.5 mph - N/A   Clear
10:50 PM 69.8 °F - 55.4 °F 60% 30.01 in - East 9.2 mph - N/A   Clear
11:20 PM 69.8 °F - 53.6 °F 56% 30.01 in - East 11.5 mph - N/A   Clear
11:50 PM 69.8 °F - 53.6 °F 56% 30.01 in - East 9.2 mph - N/A   Clear